Weather History for Juneau, WI

Change the Weather History Date:

Saturday, February 18, 2012

  Actual Average Record
Temperature  
Mean Temperature 28 °F -  
Max Temperature 33 °F 31 °F 57 °F (1981)
Min Temperature 24 °F 17 °F -16 °F (2006)
Degree Days  
Heating Degree Days 36    
Moisture  
Dew Point 18 °F    
Average Humidity 63    
Maximum Humidity 80    
Minimum Humidity 41    
Precipitation  
Precipitation 0.00 in - - ()
Sea Level Pressure  
Sea Level Pressure 30.15 in    
Wind  
Wind Speed 7 mph (NW)    
Max Wind Speed 16 mph    
Max Gust Speed 21 mph    
Visibility 10 miles    
Events Snow    
Averages and records for this station are not official NWS values.
T = Trace of Precipitation, MM = Missing Value Source: NWS Daily Summary

Daily Weather History Graph

Daily Weather History Graph

Search for Another Location

Airport:

Trip Planner

Search our weather history database for the weather conditions in past years. The results will help you decide how hot, cold, wet, or windy it might be!

Date:

Astronomy

Feb. 18, 2012 Rise Set
Actual Time 6:49 AM CST 5:28 PM CST
Civil Twilight 6:20 AM CST 5:58 PM CST
Nautical Twilight 5:46 AM CST 6:31 PM CST
Astronomical Twilight 5:13 AM CST 7:04 PM CST
Moon 4:33 AM CST (2/18) 2:21 PM CST (2/18)
Length of Visible Light 11h 37m
Length of Day
10h 39m
Waning Crescent, 11% of the Moon is Illuminated
Feb 18
Waning Crescent
Feb 21
New
Feb 29
First Quarter
Mar 8
Full
Mar 14
Last Quarter

Hourly Weather History & Observations

Time (CST) Temp. Windchill Dew Point Humidity Pressure Visibility Wind Dir Wind Speed Gust Speed Precip Events Conditions
12:15 AM 32.0 °F 25.6 °F 26.6 °F 80% 30.02 in 10.0 mi WNW 6.9 mph - N/A   Overcast
12:35 AM 32.0 °F 25.6 °F 26.6 °F 80% 30.02 in 10.0 mi West 6.9 mph - N/A   Overcast
12:55 AM 32.0 °F 26.4 °F 26.6 °F 80% 30.02 in 10.0 mi WNW 5.8 mph - N/A   Overcast
1:15 AM 32.0 °F 25.6 °F 26.6 °F 80% 30.03 in 10.0 mi WNW 6.9 mph - N/A   Overcast
1:35 AM 32.0 °F 26.4 °F 26.6 °F 80% 30.03 in 10.0 mi WNW 5.8 mph - N/A   Mostly Cloudy
1:55 AM 32.0 °F 23.6 °F 26.6 °F 80% 30.04 in 10.0 mi WNW 10.4 mph - N/A   Mostly Cloudy
2:15 AM 32.0 °F 23.0 °F 26.6 °F 80% 30.04 in 10.0 mi NW 11.5 mph 17.3 mph N/A   Overcast
2:35 AM 30.2 °F 19.8 °F 23.0 °F 75% 30.05 in 10.0 mi North 13.8 mph - N/A   Overcast
2:55 AM 28.4 °F 16.6 °F 23.0 °F 80% 30.06 in 10.0 mi North 16.1 mph 20.7 mph N/A   Overcast
3:15 AM 28.4 °F 18.0 °F 21.2 °F 74% 30.07 in 10.0 mi North 12.7 mph 17.3 mph N/A Snow Light Snow
3:35 AM 28.4 °F 20.4 °F 23.0 °F 80% 30.08 in 10.0 mi North 8.1 mph - N/A Snow Light Snow
3:55 AM 28.4 °F 19.1 °F 23.0 °F 80% 30.08 in 10.0 mi NNW 10.4 mph - N/A Snow Light Snow
4:15 AM 28.4 °F 21.2 °F 23.0 °F 80% 30.09 in 10.0 mi North 6.9 mph - N/A Snow Light Snow
4:35 AM 28.4 °F 21.2 °F 23.0 °F 80% 30.09 in 10.0 mi North 6.9 mph - N/A   Overcast
4:55 AM 28.4 °F 23.3 °F 23.0 °F 80% 30.10 in 10.0 mi NNW 4.6 mph - N/A   Overcast
5:15 AM 28.4 °F 21.2 °F 23.0 °F 80% 30.11 in 10.0 mi NW 6.9 mph - N/A   Overcast
5:35 AM 26.6 °F 18.2 °F 21.2 °F 80% 30.11 in 10.0 mi NNW 8.1 mph - N/A   Overcast
5:55 AM 26.6 °F 20.0 °F 19.4 °F 74% 30.12 in 10.0 mi North 5.8 mph - N/A   Overcast
6:15 AM 26.6 °F 21.2 °F 17.6 °F 69% 30.12 in 10.0 mi North 4.6 mph - N/A   Mostly Cloudy
6:35 AM 24.8 °F 20.5 °F 19.4 °F 80% 30.13 in 10.0 mi NNW 3.5 mph - N/A   Scattered Clouds
7:35 AM 26.6 °F - 19.4 °F 74% 30.16 in 10.0 mi Calm Calm - N/A   Overcast
7:55 AM 26.6 °F - 19.4 °F 74% 30.16 in 10.0 mi Calm Calm - N/A   Scattered Clouds
8:15 AM 28.4 °F 24.6 °F 19.4 °F 69% 30.18 in 10.0 mi West 3.5 mph - N/A   Clear
8:35 AM 28.4 °F 22.2 °F 19.4 °F 69% 30.18 in 10.0 mi NW 5.8 mph - N/A   Clear
8:55 AM 28.4 °F 20.4 °F 19.4 °F 69% 30.19 in 10.0 mi NNW 8.1 mph - N/A   Clear
9:15 AM 30.2 °F 22.6 °F 17.6 °F 60% 30.20 in 10.0 mi NW 8.1 mph - N/A   Scattered Clouds
9:35 AM 30.2 °F 24.3 °F 15.8 °F 55% 30.20 in 10.0 mi WNW 5.8 mph - N/A   Scattered Clouds
9:55 AM 30.2 °F 24.3 °F 17.6 °F 60% 30.21 in 10.0 mi NW 5.8 mph - N/A   Scattered Clouds
10:15 AM 30.2 °F 21.9 °F 17.6 °F 60% 30.21 in 10.0 mi NW 9.2 mph - N/A   Scattered Clouds
10:55 AM 32.0 °F 25.6 °F 14.0 °F 48% 30.23 in 10.0 mi NNW 6.9 mph - N/A   Scattered Clouds
11:15 AM 32.0 °F 26.4 °F 14.0 °F 48% 30.23 in 10.0 mi NW 5.8 mph - N/A   Scattered Clouds
11:35 AM 32.0 °F 26.4 °F 14.0 °F 48% 30.23 in 10.0 mi West 5.8 mph - N/A   Scattered Clouds
11:55 AM 32.0 °F 24.8 °F 14.0 °F 48% 30.22 in 10.0 mi WNW 8.1 mph - N/A   Scattered Clouds
12:15 PM 32.0 °F 24.8 °F 14.0 °F 48% 30.21 in 10.0 mi NNW 8.1 mph - N/A   Scattered Clouds
12:35 PM 32.0 °F 26.4 °F 14.0 °F 48% 30.21 in 10.0 mi NW 5.8 mph - N/A   Scattered Clouds
12:55 PM 32.0 °F 26.4 °F 14.0 °F 48% 30.21 in 10.0 mi WNW 5.8 mph - N/A   Clear
1:15 PM 32.0 °F 25.6 °F 14.0 °F 48% 30.19 in 10.0 mi NW 6.9 mph - N/A   Clear
1:55 PM 32.0 °F 24.2 °F 14.0 °F 48% 30.19 in 10.0 mi WNW 9.2 mph - N/A   Clear
2:15 PM 33.8 °F 27.7 °F 15.8 °F 48% 30.18 in 10.0 mi NNW 6.9 mph - N/A   Clear
2:55 PM 33.8 °F 27.0 °F 14.0 °F 44% 30.18 in 10.0 mi WNW 8.1 mph - N/A   Clear
3:15 PM 33.8 °F 28.6 °F 14.0 °F 44% 30.19 in 10.0 mi NNW 5.8 mph - N/A   Clear
3:35 PM 33.8 °F 28.6 °F 12.2 °F 41% 30.19 in 10.0 mi NNW 5.8 mph - N/A   Clear
3:55 PM 33.8 °F 29.6 °F 14.0 °F 44% 30.19 in 10.0 mi NW 4.6 mph - N/A   Clear
4:15 PM 33.8 °F 29.6 °F 12.2 °F 41% 30.19 in 10.0 mi North 4.6 mph - N/A   Clear
4:35 PM 33.8 °F 29.6 °F 12.2 °F 41% 30.19 in 10.0 mi WNW 4.6 mph - N/A   Clear
4:55 PM 32.0 °F 28.7 °F 12.2 °F 44% 30.20 in 10.0 mi NW 3.5 mph - N/A   Clear
5:15 PM 32.0 °F - 12.2 °F 44% 30.20 in 10.0 mi Calm Calm - N/A   Clear
5:35 PM 32.0 °F - 14.0 °F 48% 30.20 in 10.0 mi Calm Calm - N/A   Clear
5:55 PM 32.0 °F - 12.2 °F 44% 30.20 in 10.0 mi Calm Calm - N/A   Clear
6:15 PM 32.0 °F - 12.2 °F 44% 30.20 in 10.0 mi Calm Calm - N/A   Clear
6:35 PM 32.0 °F - 17.6 °F 55% 30.21 in 10.0 mi Calm Calm - N/A   Clear
6:55 PM 30.2 °F 26.7 °F 19.4 °F 64% 30.21 in 10.0 mi ESE 3.5 mph - N/A   Clear
7:15 PM 30.2 °F 25.4 °F 21.2 °F 69% 30.21 in 10.0 mi SE 4.6 mph - N/A   Clear
7:35 PM 30.2 °F 26.7 °F 19.4 °F 64% 30.21 in 10.0 mi SSE 3.5 mph - N/A   Clear
7:55 PM 30.2 °F - 19.4 °F 64% 30.22 in 10.0 mi Calm Calm - N/A   Clear
8:35 PM 28.4 °F - 21.2 °F 74% 30.21 in 10.0 mi Calm Calm - N/A   Clear
8:55 PM 28.4 °F - 21.2 °F 74% 30.21 in 10.0 mi Calm Calm - N/A   Clear
9:15 PM 26.6 °F - 19.4 °F 74% 30.21 in 10.0 mi Calm Calm - N/A   Clear
9:35 PM 28.4 °F - 19.4 °F 69% 30.21 in 10.0 mi Calm Calm - N/A   Clear
9:55 PM 26.6 °F 21.2 °F 19.4 °F 74% 30.21 in 10.0 mi ESE 4.6 mph - N/A   Clear
10:15 PM 26.6 °F 21.2 °F 19.4 °F 74% 30.20 in 10.0 mi East 4.6 mph - N/A   Clear
10:35 PM 26.6 °F 21.2 °F 17.6 °F 69% 30.20 in 10.0 mi East 4.6 mph - N/A   Clear
10:55 PM 26.6 °F 21.2 °F 19.4 °F 74% 30.20 in 10.0 mi ESE 4.6 mph - N/A   Clear
11:15 PM 26.6 °F 22.6 °F 19.4 °F 74% 30.20 in 10.0 mi ESE 3.5 mph - N/A   Clear
11:55 PM 24.8 °F - 19.4 °F 80% 30.20 in 10.0 mi Calm Calm - N/A   Clear